This demonstration page uses our WeatherBlox Daily Observations layout. Learn more.

Left ArrowRight Arrow

39.12711, -84.51439

Hourly Observations for June 16, 2019

Temp ( °F °C ) Dew Point ( °F °C ) Humidity (%) Winds ( mph kmh ) Pressure ( in mb ) Visibility ( mi km ) Precip ( " mm )
12:09 am 00:09 Cloudy with Nearby Thunderstorms 70 21.1 68 20 93 93 SW 13 20 29.86 1011 5 8 0.05 1.27
12:19 am 00:19 Cloudy with Thunderstorms 70 21.1 68 20 93 93 SW 12 19 29.86 1011 8 13 0.06 1.52
12:27 am 00:27 Cloudy with Strong Thunderstorms 70 21.1 68 20 93 93 SW 21 33 29.86 1011 2 3 0.22 5.59
12:34 am 00:34 Cloudy with Nearby Thunderstorms 69 20.6 69 20.6 100 100 SSW 9 15 29.85 1011 2 2 0.25 6.35
12:37 am 00:37 Cloudy with Nearby Thunderstorms 69 20.6 69 20.6 100 100 SW 14 22 29.85 1011 3 5 0.25 6.35
12:53 am 00:53 Cloudy with Nearby Thunderstorms 70 21.1 67 19.4 90 90 SSW 13 20 29.85 1011 5 8 0.28 7.11
1:10 am 01:10 Cloudy with Nearby Thunderstorms 69 20.6 68 20 96 96 SSW 8 13 29.85 1011 2 3 0.11 2.79
1:14 am 01:14 Mostly Cloudy with Heavy Rain 69 20.6 68 20 96 96 S 8 13 29.85 1011 2 3 0.16 4.06
1:22 am 01:22 Cloudy with Thunderstorms 69 20.6 68 20 96 96 SW 7 11 29.85 1011 2 3 0.20 5.08
1:43 am 01:43 Cloudy with Nearby Thunderstorms 69 20.6 68 20 96 96 SSW 6 9 29.85 1011 2 3 0.34 8.64
1:51 am 01:51 Cloudy with Rain 70 21 68 20 94 94 VRB 3 6 29.84 1010 2 2 0.42 10.67
1:53 am 01:53 Cloudy with Light Rain 69 20.6 68 20 96 96 VRB 6 9 29.85 1011 2 3 0.43 10.92
1:56 am 01:56 Cloudy with Heavy Rain 69 20.6 68 20 96 96 VRB 7 11 29.85 1011 3 5 0.02 0.51
1:59 am 01:59 Cloudy with Nearby Thunderstorms 70 21.1 68 20 93 93 VRB 7 11 29.85 1011 3 4 0.05 1.27
2:07 am 02:07 Cloudy with Nearby Thunderstorms 70 21.1 68 20 93 93 VRB 5 7 29.85 1011 2 2 0.19 4.83
2:30 am 02:30 Cloudy with Strong Thunderstorms 70 21.1 68 20 93 93 WNW 12 19 29.85 1011 1 2 0.73 18.54
2:37 am 02:37 Cloudy with Strong Thunderstorms 69 20.6 66 18.9 90 90 W 10 17 29.84 1010 1 1 1.00 25.40
2:53 am 02:53 Cloudy with Strong Thunderstorms 69 20.6 68 20 96 96 S 8 13 29.83 1010 1 1 1.52 38.61
3:00 am 03:00 Cloudy with Nearby Thunderstorms 70 21.1 68 20 93 93 S 3 6 29.83 1010 2 3 0.03 0.76
3:02 am 03:02 Cloudy with Nearby Thunderstorms 70 21.1 68 20 93 93 SSE 6 9 29.83 1010 3 5 0.03 0.76
3:11 am 03:11 Cloudy with Thunderstorms 70 21.1 68 20 93 93 SW 3 6 29.84 1010 10 16 0.03 0.76
3:29 am 03:29 Cloudy with Nearby Thunderstorms 70 21.1 69 20.6 97 97 S 8 13 29.83 1010 10 16 0.03 0.76
3:38 am 03:38 Cloudy 70 21.1 68 20 93 93 SSW 3 6 29.83 1010 10 16 0.03 0.76
3:45 am 03:45 Cloudy with Nearby Thunderstorms 70 21.1 68 20 93 93 VRB 5 7 29.83 1010 10 16 0.03 0.76
3:53 am 03:53 Cloudy with Nearby Thunderstorms 70 21.1 68 20 93 93 Calm 29.83 1010 10 16 0.03 0.76
4:00 am 04:00 Cloudy 70 21.1 68 20 93 93 SSE 5 7 29.83 1010 9 14 0.00 0.00
4:53 am 04:53 Mostly Cloudy 68 20 67 19.4 96 96 Calm 29.80 1009 10 16 0.00 0.00
5:53 am 05:53 Partly Cloudy with Light Rain 69 20.6 67 19.4 93 93 SSW 8 13 29.81 1010 9 14 0.04 1.02
6:14 am 06:14 Mostly Cloudy with Nearby Thunderstorms 69 20.6 67 19.4 93 93 SSW 9 15 29.83 1010 9 14 0.01 0.25
6:22 am 06:22 Mostly Cloudy with Strong Thunderstorms 69 20.6 67 19.4 93 93 WSW 13 20 29.85 1011 3 4 0.08 2.03
6:29 am 06:29 Cloudy with Strong Thunderstorms 68 20 67 19.4 96 96 SW 16 26 29.84 1010 1 2 0.27 6.86
6:35 am 06:35 Cloudy with Nearby Thunderstorms 69 20.6 67 19.4 93 93 SSW 15 24 29.84 1010 1 2 0.32 8.13
6:39 am 06:39 Cloudy with Nearby Thunderstorms 69 20.6 68 20 96 96 SSW 12 19 29.83 1010 2 3 0.35 8.89
6:48 am 06:48 Cloudy with Nearby Thunderstorms 70 21 66 19 88 88 WSW 22 35 29.88 1012 3 5 0.39 9.91
6:53 am 06:53 Cloudy with Thunderstorms 68 20 66 18.9 93 93 SW 22 35 29.87 1012 3 5 0.45 11.43
7:08 am 07:08 Cloudy with Thunderstorms 68 20 65 18.3 90 90 SW 16 26 29.86 1011 5 8 0.14 3.56
7:44 am 07:44 Mostly Cloudy with Light Rain 67 19.4 65 18.3 93 93 SSW 9 15 29.86 1011 7 11 0.20 5.08
7:53 am 07:53 Mostly Cloudy with Light Rain 67 19.4 65 18.3 93 93 SSW 9 15 29.85 1011 10 16 0.20 5.08
8:53 am 08:53 Mostly Sunny 68 20 66 18.9 93 93 SSW 8 13 29.88 1012 10 16 0.02 0.51
9:32 am 09:32 Mostly Cloudy 70 21.1 67 19.4 90 90 SSW 9 15 29.88 1012 10 16 0.00 0.00
9:53 am 09:53 Partly Cloudy 71 21.7 67 19.4 87 87 SSW 10 17 29.88 1012 10 16 0.00 0.00
10:53 am 10:53 Mostly Sunny 74 23.3 67 19.4 79 79 SSW 15 24 29.91 1013 10 16 0.00 0.00
11:19 am 11:19 Mostly Cloudy with Nearby Thunderstorms 71 21.7 66 18.9 84 84 SSW 13 20 29.91 1013 6 10 0.02 0.51
11:28 am 11:28 Mostly Cloudy with Thunderstorms 69 20.6 66 18.9 90 90 SW 8 13 29.91 1013 6 10 0.03 0.76
11:53 am 11:53 Mostly Cloudy with Light Rain 69 20.6 66 18.9 90 90 SSW 14 22 29.91 1013 10 16 0.07 1.78
12:11 pm 12:11 Mostly Cloudy with Thunderstorms 68 20 65 18.3 90 90 SSW 10 17 29.92 1013 7 11 0.01 0.25
12:53 pm 12:53 Mostly Cloudy with Thunderstorms 68 20 66 18.9 93 93 SSW 8 13 29.91 1013 7 11 0.05 1.27
1:40 pm 13:40 Partly Cloudy 70 21.1 66 18.9 87 87 VRB 3 6 29.90 1012 10 16 0.01 0.25
1:53 pm 13:53 Partly Cloudy with Thunderstorms 69 20.6 66 18.9 90 90 WSW 3 6 29.90 1013 10 16 0.01 0.25
2:02 pm 14:02 Mostly Cloudy with Thunderstorms 70 21.1 67 19.4 90 90 SSW 8 13 29.90 1012 3 5 0.05 1.27
2:20 pm 14:20 Cloudy 71 21.7 69 20.6 94 94 SSE 7 11 29.90 1012 7 11 0.08 2.03
2:53 pm 14:53 Mostly Cloudy 73 22.8 69 20.6 87 87 S 7 11 29.89 1012 10 16 0.08 2.03
3:53 pm 15:53 Partly Cloudy 79 26.1 72 22.2 79 79 SSW 6 9 29.88 1012 10 16 0.00 0.00
4:53 pm 16:53 Sunny 81 27.2 73 22.8 77 77 SW 5 7 29.85 1011 10 16 0.00 0.00
5:53 pm 17:53 Partly Cloudy with Thunderstorms 79 26.1 73 22.8 82 82 SW 12 19 29.88 1012 7 11 0.01 0.25
6:53 pm 18:53 Mostly Cloudy with Light Rain 73 22.8 66 18.9 79 79 WSW 8 13 29.79 1009 8 13 0.07 1.78
7:53 pm 19:53 Sunny 72 22.2 68 20 87 87 VRB 3 6 29.83 1010 10 16 0.00 0.03
8:53 pm 20:53 Partly Cloudy with Light Rain 70 21.1 69 20.6 97 97 S 7 11 29.86 1011 8 13 0.00 0.03
9:53 pm 21:53 Mostly Clear with Light Rain 70 21.1 69 20.6 97 97 SSW 9 15 29.89 1012 7 11 0.07 1.78
10:09 pm 22:09 Mostly Cloudy with Thunderstorms 70 21.1 68 20 93 93 S 5 7 29.89 1012 8 13 0.02 0.51
10:53 pm 22:53 Mostly Clear with Light Rain 68 20 67 19.4 96 96 S 8 13 29.91 1013 10 16 0.06 1.52
11:53 pm 23:53 Mostly Clear with Light Rain 68 20 67 19.4 96 96 S 10 17 29.95 1014 10 16 0.05 1.27

Powered by AerisWeather